FW1818 Weather Reports


Display with metric or nautical units.
time (UTC)temp
F
wind
direction
speed
MPH
gust
MPH
rain 1hr
in
rain 24hr
in
rain mn
in
humidity
%
barometer
mb
20180817034325 68 80 3.0 8.0 0.00 0.00 0.00 66 1012.6
20180817032813 68 61 3.0 7.0 0.00 0.00 0.00 66 1012.0
20180817030822 70 348 3.0 10.0 0.00 0.00 0.00 63 1012.2
20180817024820 72 46 3.0 8.0 0.00 0.00 0.00 58 1011.9
20180817023313 74 18 5.0 9.0 0.00 0.00 0.00 53 1011.9
20180817021318 75 162 6.0 20.0 0.00 0.00 0.00 50 1011.9
20180817015806 75 34 5.0 11.0 0.00 0.00 0.00 53 1012.3
20180817013823 76 253 5.0 17.0 0.00 0.00 0.00 51 1011.5
20180817012317 77 248 8.0 19.0 0.00 0.00 0.00 50 1011.7
20180817010326 79 174 5.0 14.0 0.00 0.00 0.00 47 1012.7
20180817004318 81 95 3.0 7.0 0.00 0.00 0.00 45 1012.6
20180817002815 81 158 3.0 16.0 0.00 0.00 0.00 46 1012.8
20180817000824 81 252 4.0 15.0 0.00 0.00 0.00 47 1012.3
20180816235313 80 247 11.0 22.0 0.00 0.00 0.00 47 1011.5
20180816233323 81 245 14.0 23.0 0.00 0.00 0.00 47 1011.5
20180816231808 82 245 7.0 17.0 0.00 0.00 0.00 46 1011.5
20180816225829 82 268 5.0 13.0 0.00 0.00 0.00 44 1012.6
20180816224311 83 200 5.0 13.0 0.00 0.00 0.00 42 1012.4
20180816222808 83 247 4.0 15.0 0.00 0.00 0.00 41 1012.6
20180816220821 82 281 6.0 12.0 0.00 0.00 0.00 40 1012.8
20180816214907 76 237 28.0 32.0 0.00 0.00 0.00 52 1012.7
20180816213321 75 245 27.0 32.0 0.00 0.00 0.00 50 1013.0
20180816211331 74 249 28.0 32.0 0.00 0.00 0.00 49 1013.0
20180816205823 74 247 27.0 32.0 0.00 0.00 0.00 50 1013.1
20180816203817 72 239 27.0 32.0 0.00 0.00 0.00 51 1013.4
20180816201829 72 243 27.0 33.0 0.00 0.00 0.00 54 1013.2
20180816200320 71 239 22.0 27.0 0.00 0.00 0.00 58 1013.8
20180816194338 71 241 21.0 25.0 0.00 0.00 0.00 56 1014.0
20180816192322 69 238 23.0 27.0 0.00 0.00 0.00 60 1014.1
20180816190332 68 239 23.0 28.0 0.00 0.00 0.00 63 1013.8
20180816184828 67 238 22.0 29.0 0.00 0.00 0.00 66 1014.1
20180816183320 66 242 22.0 29.0 0.00 0.00 0.00 70 1014.1
20180816181645 73 187 7.0 14.0 0.00 0.00 0.00 58 1014.1
20180816175837 71 195 2.0 11.0 0.00 0.00 0.00 64 1014.2
20180816174325 70 276 2.0 15.0 0.00 0.00 0.00 68 1014.1
20180816172339 68 199 6.0 12.0 0.00 0.00 0.00 70 1014.0
20180816170829 66 181 5.0 12.0 0.00 0.00 0.00 74 1013.7
20180816164834 64 221 7.0 14.0 0.00 0.00 0.00 79 1013.8
20180816162841 63 214 7.0 17.0 0.00 0.00 0.00 80 1013.6
20180816160838 63 210 5.0 12.0 0.00 0.00 0.00 83 1013.7
20180816155324 62 177 7.0 13.0 0.00 0.00 0.00 84 1013.6
20180816153336 61 325 4.0 14.0 0.00 0.00 0.00 85 1013.2
20180816151333 61 222 6.0 11.0 0.00 0.00 0.00 86 1013.2
20180816145830 60 220 3.0 9.0 0.00 0.00 0.00 88 1013.0
20180816143836 58 195 3.0 13.0 0.00 0.00 0.00 89 1012.9
20180816141843 58 222 4.0 13.0 0.00 0.00 0.00 89 1012.7
20180816135831 58 198 4.0 11.0 0.00 0.00 0.00 90 1012.6
20180816133836 58 254 4.0 9.0 0.00 0.00 0.00 89 1011.5
20180816131838 58 195 5.0 17.0 0.00 0.00 0.00 89 1011.2
20180816130323 58 299 6.0 18.0 0.00 0.00 0.00 89 1011.0
20180816124333 58 38 2.0 8.0 0.00 0.00 0.00 88 1010.9
20180816122338 58 109 2.0 14.0 0.00 0.00 0.00 88 1010.9
20180816120822 58 216 5.0 11.0 0.00 0.00 0.00 88 1010.7
20180816114838 58 220 5.0 10.0 0.00 0.00 0.00 87 1011.2
20180816113325 59 138 4.0 12.0 0.00 0.00 0.00 85 1011.2
20180816111334 59 41 5.0 15.0 0.00 0.00 0.00 87 1010.9
20180816105827 59 126 4.0 10.0 0.00 0.00 0.00 86 1010.9
20180816103835 59 310 2.0 12.0 0.00 0.00 0.00 85 1010.6
20180816101837 60 97 1.0 18.0 0.00 0.00 0.00 81 1010.1
20180816100325 61 154 5.0 15.0 0.00 0.00 0.00 80 1010.5
20180816094334 61 215 5.0 16.0 0.00 0.00 0.00 78 1010.0
20180816092337 61 210 4.0 12.0 0.00 0.00 0.00 79 1009.8
20180816090823 61 134 1.0 11.0 0.00 0.00 0.00 79 1010.3
20180816084837 61 70 3.0 21.0 0.00 0.00 0.00 80 1010.2
20180816083325 62 211 3.0 17.0 0.00 0.00 0.00 81 1010.2
20180816081336 62 176 3.0 11.0 0.00 0.00 0.00 80 1010.2
20180816075344 63 158 4.0 13.0 0.00 0.00 0.00 76 1010.1
20180816073326 63 213 2.0 15.0 0.00 0.00 0.00 78 1010.1
20180816071332 63 192 5.0 12.0 0.00 0.00 0.00 76 1009.8
20180816065341 63 350 7.0 15.0 0.00 0.00 0.00 76 1009.9
20180816063328 63 350 5.0 12.0 0.00 0.00 0.00 75 1009.8
20180816061347 62 238 5.0 9.0 0.00 0.00 0.00 81 1010.3
20180816055822 62 245 6.0 12.0 0.00 0.00 0.00 81 1010.3
20180816053828 60 243 27.0 34.0 0.00 0.00 0.00 83 1009.8
20180816051834 60 247 29.0 36.0 0.00 0.00 0.00 84 1009.8
20180816045842 60 238 25.0 32.0 0.00 0.00 0.00 83 1010.1
20180816043838 60 242 20.0 30.0 0.00 0.00 0.00 81 1010.3
20180816041844 60 267 22.0 30.0 0.00 0.00 0.00 78 1009.9
20180816040323 61 256 16.0 35.0 0.00 0.00 0.00 76 1010.0
20180816034337 61 251 22.0 34.0 0.00 0.00 0.00 75 1009.4
20180816032827 62 254 24.0 31.0 0.00 0.00 0.00 75 1009.4
20180816030836 63 248 13.0 26.0 0.00 0.00 0.00 73 1009.5
20180816024331 64 258 25.0 33.0 0.00 0.00 0.00 70 1008.9
20180816022349 66 243 16.0 39.0 0.00 0.00 0.00 68 1008.5
20180816020327 70 15 2.0 10.0 0.00 0.00 0.00 62 1008.3
20180816014340 68 239 37.0 43.0 0.00 0.00 0.00 63 1007.9
20180816012338 68 251 38.0 46.0 0.00 0.00 0.00 63 1008.0
20180816010828 69 252 33.0 40.0 0.00 0.00 0.00 60 1008.6
20180816004833 70 256 29.0 38.0 0.00 0.00 0.00 60 1009.3
20180816003324 70 247 31.0 38.0 0.00 0.00 0.00 60 1009.1
20180816001327 70 245 36.0 46.0 0.00 0.00 0.00 59 1008.2
20180815235342 70 239 39.0 48.0 0.00 0.00 0.00 59 1008.4
20180815233333 71 235 44.0 50.0 0.00 0.00 0.00 58 1007.9
20180815231336 71 235 35.0 43.0 0.00 0.00 0.00 58 1008.8
20180815225823 71 238 35.0 43.0 0.00 0.00 0.00 57 1009.0
20180815223836 71 248 32.0 39.0 0.00 0.00 0.00 57 1009.7
20180815222331 71 240 31.0 36.0 0.00 0.00 0.00 59 1009.8
20180815220341 71 247 29.0 35.0 0.00 0.00 0.00 59 1010.0
20180815214828 71 249 29.0 38.0 0.00 0.00 0.00 58 1010.1
20180815212833 71 242 30.0 36.0 0.00 0.00 0.00 59 1010.2
20180815210842 71 242 27.0 32.0 0.00 0.00 0.00 60 1010.3
20180815205329 70 233 26.0 32.0 0.00 0.00 0.00 60 1010.6
20180815203823 70 247 24.0 29.0 0.00 0.00 0.00 61 1010.7
20180815201838 69 259 23.0 31.0 0.00 0.00 0.00 63 1010.8
20180815200329 68 237 23.0 31.0 0.00 0.00 0.00 65 1011.0
20180815193843 66 240 22.0 30.0 0.00 0.00 0.00 69 1011.1
20180815191831 66 242 22.0 28.0 0.00 0.00 0.00 69 1010.9
20180815185822 65 249 26.0 30.0 0.00 0.00 0.00 70 1010.8
20180815183830 64 235 26.0 32.0 0.00 0.00 0.00 73 1010.8
20180815181836 62 243 26.0 32.0 0.00 0.00 0.00 75 1010.5
20180815180322 62 238 27.0 33.0 0.00 0.00 0.00 76 1010.9
20180815174331 62 240 24.0 31.0 0.00 0.00 0.00 77 1011.0
20180815172343 61 247 25.0 34.0 0.00 0.00 0.00 80 1011.1
20180815170831 61 243 24.0 28.0 0.00 0.00 0.00 80 1010.9
20180815164839 60 250 22.0 30.0 0.00 0.00 0.00 81 1011.0
20180815163329 60 244 21.0 27.0 0.00 0.00 0.00 82 1011.0
20180815161345 59 202 24.0 30.0 0.00 0.00 0.00 82 1010.7
20180815155825 58 256 28.0 33.0 0.00 0.00 0.00 84 1010.3
20180815153841 58 236 26.0 31.0 0.00 0.00 0.00 84 1010.4
20180815152329 58 235 24.0 34.0 0.00 0.00 0.00 85 1010.4
20180815150335 61 256 6.0 14.0 0.00 0.00 0.00 84 1010.0
20180815144344 60 252 4.0 11.0 0.00 0.00 0.00 85 1010.0
20180815142328 60 255 3.0 9.0 0.00 0.00 0.00 86 1009.9
20180815140322 59 245 5.0 10.0 0.00 0.00 0.00 87 1009.3
20180815134327 59 228 6.0 13.0 0.00 0.00 0.00 87 1008.9
20180815132335 59 260 2.0 7.0 0.00 0.00 0.00 88 1009.3
20180815130341 59 282 2.0 8.0 0.00 0.00 0.00 87 1009.0
20180815124824 59 223 5.0 17.0 0.00 0.00 0.00 86 1008.7
20180815122837 60 229 2.0 8.0 0.00 0.00 0.00 87 1009.2
20180815120839 60 259 4.0 10.0 0.00 0.00 0.00 87 1008.8
20180815114829 59 230 4.0 9.0 0.00 0.00 0.00 87 1008.5
20180815112840 60 235 3.0 13.0 0.00 0.00 0.00 86 1008.6
20180815111320 60 214 3.0 12.0 0.00 0.00 0.00 86 1008.6
20180815105329 57 242 23.0 30.0 0.00 0.00 0.00 90 1008.7
20180815103821 57 247 26.0 35.0 0.00 0.00 0.00 90 1008.4
20180815101822 57 242 22.0 34.0 0.00 0.00 0.00 89 1008.6
20180815095818 58 228 14.0 35.0 0.00 0.00 0.00 89 1008.5
20180815093826 57 264 27.0 37.0 0.00 0.00 0.00 90 1008.2
20180815092312 57 242 31.0 38.0 0.00 0.00 0.00 89 1008.3
20180815090325 58 231 18.0 35.0 0.00 0.00 0.00 88 1008.6
20180815084808 58 212 27.0 37.0 0.00 0.00 0.00 88 1008.3
20180815082821 58 227 22.0 35.0 0.00 0.00 0.00 88 1008.6
20180815080316 58 246 18.0 30.0 0.00 0.00 0.00 88 1008.7
20180815074327 58 247 32.0 42.0 0.00 0.00 0.00 88 1008.1
20180815071816 58 226 26.0 41.0 0.00 0.00 0.00 88 1008.5
20180815065837 58 241 22.0 32.0 0.00 0.00 0.00 88 1008.7
20180815064313 58 243 26.0 37.0 0.00 0.00 0.00 88 1008.5
20180815062320 58 248 26.0 40.0 0.00 0.00 0.00 89 1008.4
20180815060328 58 240 26.0 38.0 0.00 0.00 0.00 88 1008.5
20180815054813 58 254 28.0 38.0 0.00 0.00 0.00 88 1008.4
20180815052815 58 252 27.0 35.0 0.00 0.00 0.00 88 1008.4
20180815050828 58 228 27.0 36.0 0.00 0.00 0.00 88 1008.3
20180815045319 58 235 25.0 33.0 0.00 0.00 0.00 87 1008.2
20180815043328 58 250 31.0 41.0 0.00 0.00 0.00 87 1007.4
20180815040815 59 223 20.0 34.0 0.00 0.00 0.00 85 1008.0
20180815034828 59 214 25.0 37.0 0.00 0.00 0.00 84 1007.6
20180815033314 60 212 19.0 32.0 0.00 0.00 0.00 83 1007.9
20180815031329 60 249 22.0 35.0 0.00 0.00 0.00 81 1007.7
20180815025820 61 238 26.0 44.0 0.00 0.00 0.00 80 1007.7
20180815023827 62 252 33.0 41.0 0.00 0.00 0.00 78 1006.8
20180815021822 63 243 30.0 42.0 0.00 0.00 0.00 75 1007.7
20180815020315 64 247 29.0 43.0 0.00 0.00 0.00 74 1007.6
20180815014332 69 88 6.0 24.0 0.00 0.00 0.00 66 1007.5
20180815012321 71 56 3.0 10.0 0.00 0.00 0.00 64 1008.2
20180815010330 72 64 5.0 11.0 0.00 0.00 0.00 62 1008.2
20180815004820 73 115 2.0 9.0 0.00 0.00 0.00 60 1008.1
20180815002824 73 99 4.0 12.0 0.00 0.00 0.00 60 1008.4
20180815001318 68 240 28.0 37.0 0.00 0.00 0.00 66 1008.2
20180814235329 67 239 33.0 42.0 0.00 0.00 0.00 69 1007.5
20180814233319 67 242 39.0 47.0 0.00 0.00 0.00 69 1007.2
20180814231317 68 240 37.0 44.0 0.00 0.00 0.00 67 1007.2
20180814225813 68 218 29.0 37.0 0.00 0.00 0.00 65 1007.8
20180814223823 68 238 33.0 42.0 0.00 0.00 0.00 65 1007.4
20180814222314 68 241 36.0 42.0 0.00 0.00 0.00 64 1007.7
20180814220327 68 247 36.0 43.0 0.00 0.00 0.00 65 1007.9
20180814214815 68 242 35.0 42.0 0.00 0.00 0.00 65 1007.7
20180814212823 68 249 31.0 40.0 0.00 0.00 0.00 66 1008.5
20180814210821 68 236 30.0 38.0 0.00 0.00 0.00 66 1008.9
20180814205309 67 238 29.0 34.0 0.00 0.00 0.00 68 1008.9
20180814203324 72 246 11.0 18.0 0.00 0.00 0.00 60 1009.3
20180814201322 72 218 5.0 13.0 0.00 0.00 0.00 61 1009.5
20180814195809 71 209 7.0 16.0 0.00 0.00 0.00 63 1009.9
20180814193822 70 246 8.0 16.0 0.00 0.00 0.00 65 1009.9
20180814192309 68 185 7.0 17.0 0.00 0.00 0.00 67 1010.0
20180814190323 67 220 8.0 22.0 0.00 0.00 0.00 70 1010.0
20180814184813 67 210 8.0 16.0 0.00 0.00 0.00 69 1009.9
20180814182828 65 218 4.0 20.0 0.00 0.00 0.00 73 1010.3
20180814180323 64 249 7.0 20.0 0.00 0.00 0.00 74 1010.0
20180814174810 63 209 7.0 16.0 0.00 0.00 0.00 76 1010.3
20180814172830 62 229 4.0 10.0 0.00 0.00 0.00 77 1010.2
20180814171320 62 261 5.0 13.0 0.00 0.00 0.00 78 1010.3
20180814165810 62 183 1.0 9.0 0.00 0.00 0.00 80 1010.2
20180814163821 62 261 2.0 10.0 0.00 0.00 0.00 81 1009.9
20180814162318 61 260 4.0 13.0 0.00 0.00 0.00 83 1009.9
20180814160329 60 273 3.0 8.0 0.00 0.00 0.00 84 1009.6
20180814154335 59 216 6.0 12.0 0.00 0.00 0.00 86 1009.1
20180814152321 59 254 7.0 14.0 0.00 0.00 0.00 87 1009.2
20180814150326 58 212 6.0 17.0 0.00 0.00 0.00 88 1009.3
20180814144337 58 163 3.0 21.0 0.00 0.00 0.00 89 1008.3
20180814142819 57 235 5.0 12.0 0.00 0.00 0.00 89 1008.5
20180814140825 57 252 3.0 8.0 0.00 0.00 0.00 89 1008.4
20180814134927 55 243 30.0 39.0 0.00 0.00 0.00 93 1008.4
20180814133333 55 229 28.0 39.0 0.00 0.00 0.00 93 1008.4
20180814130844 55 241 31.0 41.0 0.00 0.00 0.00 93 1008.0
20180814124831 55 234 29.0 39.0 0.00 0.00 0.00 93 1007.9
20180814122841 55 241 24.0 37.0 0.00 0.00 0.00 93 1008.3
20180814120839 55 223 27.0 43.0 0.00 0.00 0.00 93 1008.1
20180814114342 55 257 30.0 38.0 0.00 0.00 0.00 91 1007.8
20180814112346 55 238 26.0 33.0 0.00 0.00 0.00 92 1008.3
20180814110337 55 249 16.0 35.0 0.00 0.00 0.00 92 1008.6
20180814104343 55 235 21.0 32.0 0.00 0.00 0.00 92 1008.6
20180814102831 55 261 19.0 28.0 0.00 0.00 0.00 92 1008.6
20180814100838 55 254 13.0 28.0 0.00 0.00 0.00 92 1008.9
20180814095334 57 249 7.0 30.0 0.00 0.00 0.00 89 1008.3
20180814093331 57 238 8.0 15.0 0.00 0.00 0.00 89 1008.7
20180814091334 58 316 5.0 11.0 0.00 0.00 0.00 88 1009.1
20180814085818 58 225 7.0 14.0 0.00 0.00 0.00 88 1007.9
20180814083835 58 205 7.0 17.0 0.00 0.00 0.00 88 1008.3
20180814080826 58 243 5.0 11.0 0.00 0.00 0.00 87 1008.9
20180814074837 58 252 5.0 11.0 0.00 0.00 0.00 87 1008.6
20180814073325 58 211 6.0 11.0 0.00 0.00 0.00 87 1008.9
20180814071333 58 255 7.0 16.0 0.00 0.00 0.00 86 1008.9
20180814065345 59 254 8.0 15.0 0.00 0.00 0.00 86 1009.4
20180814063825 59 235 7.0 14.0 0.00 0.00 0.00 87 1008.8
20180814061830 59 173 4.0 14.0 0.00 0.00 0.00 85 1008.4
20180814055835 59 159 4.0 17.0 0.00 0.00 0.00 85 1008.6
20180814054326 59 200 3.0 11.0 0.00 0.00 0.00 86 1008.9
20180814052329 59 129 2.0 11.0 0.00 0.00 0.00 86 1008.4
20180814050418 56 242 25.0 40.0 0.00 0.00 0.00 90 1008.3
20180814044320 56 242 34.0 40.0 0.00 0.00 0.00 89 1008.1
20180814042315 57 223 27.0 37.0 0.00 0.00 0.00 87 1008.4
20180814040802 57 238 32.0 42.0 0.00 0.00 0.00 86 1008.2
20180814034811 58 238 36.0 47.0 0.00 0.00 0.00 85 1007.7
20180814032812 59 255 33.0 42.0 0.00 0.00 0.00 83 1007.9
20180814030822 60 244 38.0 49.0 0.00 0.00 0.00 81 1007.4
20180814025302 60 242 40.0 47.0 0.00 0.00 0.00 79 1007.0
20180814023320 63 240 36.0 43.0 0.00 0.00 0.00 74 1007.4
20180814021809 64 240 26.0 35.0 0.00 0.00 0.00 71 1008.4
20180814015819 66 242 24.0 31.0 0.00 0.00 0.00 69 1008.3
20180814014308 67 246 25.0 30.0 0.00 0.00 0.00 65 1008.5
20180814011812 68 241 23.0 34.0 0.00 0.00 0.00 63 1008.4
20180814010302 69 275 26.0 35.0 0.00 0.00 0.00 63 1008.4
20180814004316 70 237 25.0 32.0 0.00 0.00 0.00 60 1008.4
20180814002804 70 245 25.0 31.0 0.00 0.00 0.00 60 1008.6
20180814000820 72 246 14.0 24.0 0.00 0.00 0.00 56 1009.3
20180813235308 72 258 12.0 26.0 0.00 0.00 0.00 57 1009.5
20180813232302 71 239 25.0 35.0 0.00 0.00 0.00 57 1008.8
20180813230315 72 239 27.0 34.0 0.00 0.00 0.00 56 1008.8
20180813224806 72 242 21.0 30.0 0.00 0.00 0.00 56 1009.5
20180813222817 72 243 23.0 29.0 0.00 0.00 0.00 57 1009.9
20180813221306 72 234 22.0 31.0 0.00 0.00 0.00 57 1009.9
20180813215316 72 240 23.0 30.0 0.00 0.00 0.00 59 1010.0
20180813213804 71 242 19.0 24.0 0.00 0.00 0.00 58 1010.5
20180813211815 71 244 18.0 28.0 0.00 0.00 0.00 60 1010.7
20180813210304 70 236 23.0 32.0 0.00 0.00 0.00 60 1010.4
20180813204324 69 245 18.0 26.0 0.00 0.00 0.00 62 1010.8
20180813202300 68 250 26.0 31.0 0.00 0.00 0.00 64 1010.5
20180813200313 67 235 26.0 36.0 0.00 0.00 0.00 66 1010.6
20180813194802 66 246 27.0 33.0 0.00 0.00 0.00 66 1010.3
20180813192811 64 242 17.0 26.0 0.00 0.00 0.00 72 1011.4
20180813190817 63 222 20.0 29.0 0.00 0.00 0.00 74 1011.3
20180813185308 62 244 28.0 34.0 0.00 0.00 0.00 75 1010.9
20180813183316 61 246 30.0 37.0 0.00 0.00 0.00 77 1010.7
20180813181806 60 241 31.0 35.0 0.00 0.00 0.00 81 1010.7
20180813175815 58 240 30.0 37.0 0.00 0.00 0.00 84 1010.7
20180813174300 57 243 28.0 40.0 0.00 0.00 0.00 88 1010.9
20180813172310 57 261 31.0 37.0 0.00 0.00 0.00 89 1010.6
20180813170314 56 238 28.0 37.0 0.00 0.00 0.00 90 1010.5
20180813164808 56 233 26.0 37.0 0.00 0.00 0.00 91 1010.5
20180813162817 56 248 26.0 35.0 0.00 0.00 0.00 92 1010.4
20180813161303 55 251 29.0 38.0 0.00 0.00 0.00 92 1010.2
20180813155317 55 242 28.0 36.0 0.00 0.00 0.00 93 1010.3
20180813153804 54 241 30.0 34.0 0.00 0.00 0.00 93 1009.9
20180813151816 54 244 28.0 35.0 0.00 0.00 0.00 94 1009.8
20180813150305 54 238 28.0 35.0 0.00 0.00 0.00 94 1009.6
20180813144315 54 242 32.0 39.0 0.00 0.00 0.00 95 1009.4
20180813142315 53 244 28.0 36.0 0.00 0.00 0.00 95 1009.7
20180813140807 53 252 28.0 36.0 0.00 0.00 0.00 95 1009.7
20180813134815 53 239 29.0 34.0 0.00 0.00 0.00 95 1009.4
20180813132815 53 252 30.0 34.0 0.00 0.00 0.00 95 1009.1
20180813130806 53 240 29.0 35.0 0.00 0.00 0.00 94 1008.9
20180813124818 53 240 25.0 32.0 0.00 0.00 0.00 94 1009.4
20180813122310 54 259 29.0 38.0 0.00 0.00 0.00 94 1008.5
20180813120321 54 268 28.0 36.0 0.00 0.00 0.00 94 1008.8
20180813114310 54 262 22.0 33.0 0.00 0.00 0.00 94 1009.0
20180813112311 54 253 16.0 28.0 0.00 0.00 0.00 93 1009.2
20180813110759 54 242 19.0 28.0 0.00 0.00 0.00 93 1008.8
20180813104947 59 216 1.0 8.0 0.00 0.00 0.00 85 1009.0
20180813102905 58 261 2.0 13.0 0.00 0.00 0.00 86 1009.1
20180813101352 59 221 2.0 10.0 0.00 0.00 0.00 85 1009.0
20180813095409 59 235 2.0 12.0 0.00 0.00 0.00 84 1008.7
20180813093900 60 162 5.0 10.0 0.00 0.00 0.00 83 1008.8
20180813091856 60 197 4.0 13.0 0.00 0.00 0.00 81 1008.4
20180813085906 61 159 4.0 9.0 0.00 0.00 0.00 79 1008.1
20180813083856 61 192 2.0 12.0 0.00 0.00 0.00 79 1008.2
20180813081406 63 129 1.0 13.0 0.00 0.00 0.00 74 1007.7
20180813075850 62 142 6.0 14.0 0.00 0.00 0.00 77 1007.7
20180813073900 62 152 5.0 12.0 0.00 0.00 0.00 77 1008.2
20180813071909 60 182 8.0 20.0 0.00 0.00 0.00 82 1008.6
20180813065928 60 310 2.0 17.0 0.00 0.00 0.00 84 1008.8
20180813064405 60 214 7.0 14.0 0.00 0.00 0.00 83 1008.9
20180813062412 61 219 5.0 11.0 0.00 0.00 0.00 80 1009.1
20180813060900 62 182 5.0 11.0 0.00 0.00 0.00 78 1008.6
20180813055348 63 174 3.0 11.0 0.00 0.00 0.00 76 1009.1
20180813053337 63 202 7.0 14.0 0.00 0.00 0.00 74 1009.2
20180813051346 64 71 0.0 5.0 0.00 0.00 0.00 73 1008.7
20180813045338 65 135 2.0 9.0 0.00 0.00 0.00 70 1008.2
20180813043834 65 197 3.0 14.0 0.00 0.00 0.00 69 1008.8
20180813041350 67 224 4.0 11.0 0.00 0.00 0.00 63 1009.1
20180813035836 68 133 3.0 7.0 0.00 0.00 0.00 61 1008.8
20180813033851 69 88 3.0 6.0 0.00 0.00 0.00 59 1008.5
20180813032346 70 327 1.0 6.0 0.00 0.00 0.00 58 1008.7
20180813030837 71 93 3.0 8.0 0.00 0.00 0.00 57 1008.5
20180813024848 72 46 1.0 7.0 0.00 0.00 0.00 56 1008.5
20180813022842 73 193 2.0 8.0 0.00 0.00 0.00 53 1008.3
20180813020848 74 197 1.0 8.0 0.00 0.00 0.00 52 1007.9
20180813015341 75 249 6.0 16.0 0.00 0.00 0.00 49 1007.6
20180813013830 76 249 2.0 12.0 0.00 0.00 0.00 48 1007.9
20180813011834 78 194 4.0 11.0 0.00 0.00 0.00 46 1008.1
20180813005841 79 262 5.0 17.0 0.00 0.00 0.00 45 1007.8
20180813003851 80 216 9.0 18.0 0.00 0.00 0.00 43 1007.9
20180813002337 81 269 9.0 21.0 0.00 0.00 0.00 42 1007.1
20180813000827 83 280 10.0 19.0 0.00 0.00 0.00 40 1008.0
20180812235320 84 252 9.0 15.0 0.00 0.00 0.00 37 1007.9
20180812233331 85 249 6.0 14.0 0.00 0.00 0.00 34 1008.1
20180812231818 86 216 5.0 11.0 0.00 0.00 0.00 33 1008.6
20180812225835 87 263 1.0 8.0 0.00 0.00 0.00 33 1008.8
20180812223829 86 245 5.0 10.0 0.00 0.00 0.00 32 1009.0
20180812221834 86 210 5.0 11.0 0.00 0.00 0.00 33 1009.2
20180812215824 85 219 9.0 14.0 0.00 0.00 0.00 36 1009.4
20180812213832 85 249 7.0 12.0 0.00 0.00 0.00 36 1009.5
20180812212319 85 246 8.0 14.0 0.00 0.00 0.00 36 1009.7
20180812210327 85 247 5.0 14.0 0.00 0.00 0.00 36 1009.9
20180812204819 84 211 7.0 14.0 0.00 0.00 0.00 37 1009.6
20180812202831 83 277 5.0 10.0 0.00 0.00 0.00 38 1010.3
20180812201318 83 202 5.0 11.0 0.00 0.00 0.00 38 1010.3
20180812195332 83 220 7.0 12.0 0.00 0.00 0.00 37 1010.4
20180812193818 83 244 5.0 14.0 0.00 0.00 0.00 40 1010.2
20180812191834 82 252 4.0 12.0 0.00 0.00 0.00 37 1010.1
20180812190325 80 241 9.0 13.0 0.00 0.00 0.00 41 1010.3
20180812184338 79 266 7.0 15.0 0.00 0.00 0.00 42 1010.5
20180812182828 77 228 6.0 13.0 0.00 0.00 0.00 46 1010.8
20180812181320 75 262 8.0 14.0 0.00 0.00 0.00 50 1011.0
20180812175339 74 226 6.0 14.0 0.00 0.00 0.00 56 1010.7
20180812173825 74 257 6.0 13.0 0.00 0.00 0.00 55 1010.7
20180812171838 73 271 6.0 12.0 0.00 0.00 0.00 56 1010.6
20180812170324 74 247 8.0 13.0 0.00 0.00 0.00 55 1010.4
20180812164332 74 81 2.0 6.0 0.00 0.00 0.00 53 1010.2
20180812162833 73 77 4.0 6.0 0.00 0.00 0.00 56 1010.5
20180812161319 72 67 2.0 5.0 0.00 0.00 0.00 58 1010.4
20180812155329 70 91 2.0 4.0 0.00 0.00 0.00 62 1010.3
20180812153323 68 73 1.0 4.0 0.00 0.00 0.00 66 1010.3
20180812151323 67 143 1.0 3.0 0.00 0.00 0.00 69 1010.0
20180812145817 66 165 0.0 4.0 0.00 0.00 0.00 71 1010.0
20180812143826 64 118 2.0 3.0 0.00 0.00 0.00 74 1009.6
20180812141835 62 148 2.0 8.0 0.00 0.00 0.00 76 1009.4
20180812140320 62 62 2.0 5.0 0.00 0.00 0.00 75 1009.0
20180812134327 63 311 2.0 6.0 0.00 0.00 0.00 71 1008.9
20180812132812 63 77 1.0 7.0 0.00 0.00 0.00 71 1008.8
20180812130826 64 36 2.0 9.0 0.00 0.00 0.00 69 1008.7
20180812124835 63 162 4.0 9.0 0.00 0.00 0.00 69 1008.5
20180812123317 63 134 6.0 10.0 0.00 0.00 0.00 73 1008.3
20180812121320 64 152 2.0 5.0 0.00 0.00 0.00 67 1008.5
20180812115335 65 147 2.0 5.0 0.00 0.00 0.00 63 1009.0
20180812113818 67 204 5.0 11.0 0.00 0.00 0.00 57 1008.1
20180812111824 65 149 4.0 10.0 0.00 0.00 0.00 62 1008.9
20180812105831 63 146 3.0 10.0 0.00 0.00 0.00 70 1008.5
20180812104324 62 128 2.0 4.0 0.00 0.00 0.00 72 1008.3
20180812102813 62 13 1.0 6.0 0.00 0.00 0.00 73 1008.5
20180812100834 62 214 1.0 5.0 0.00 0.00 0.00 73 1008.3
20180812095319 62 195 5.0 12.0 0.00 0.00 0.00 76 1008.2
20180812093330 63 202 5.0 10.0 0.00 0.00 0.00 72 1008.3
20180812091337 65 221 16.0 25.0 0.00 0.00 0.00 64 1008.8
20180812084832 65 211 11.0 17.0 0.00 0.00 0.00 65 1009.0
20180812082833 66 271 6.0 7.0 0.00 0.00 0.00 66 1008.9
20180812081329 66 273 2.0 7.0 0.00 0.00 0.00 65 1009.3
20180812075335 66 145 4.0 11.0 0.00 0.00 0.00 65 1008.9
20180812073327 66 112 2.0 5.0 0.00 0.00 0.00 64 1008.4
20180812071825 66 191 2.0 16.0 0.00 0.00 0.00 64 1008.8
20180812065848 67 350 6.0 9.0 0.00 0.00 0.00 62 1009.0
20180812064326 67 227 3.0 8.0 0.00 0.00 0.00 60 1009.2
20180812062824 68 190 7.0 13.0 0.00 0.00 0.00 59 1009.2
20180812060841 69 165 5.0 13.0 0.00 0.00 0.00 57 1009.0
20180812054826 68 145 1.0 4.0 0.00 0.00 0.00 57 1008.7
20180812052833 69 281 3.0 13.0 0.00 0.00 0.00 57 1008.3
20180812050836 70 198 2.0 10.0 0.00 0.00 0.00 54 1008.4
20180812044908 69 296 1.0 6.0 0.00 0.00 0.00 56 1008.0
20180812043335 69 304 1.0 5.0 0.00 0.00 0.00 56 1007.8
20180812041342 70 311 2.0 9.0 0.00 0.00 0.00 53 1007.3
20180812035335 71 309 1.0 4.0 0.00 0.00 0.00 51 1007.6
20180812033830 72 225 1.0 11.0 0.00 0.00 0.00 48 1007.8
20180812031833 73 191 4.0 14.0 0.00 0.00 0.00 46 1007.0
20180812030321 74 206 4.0 15.0 0.00 0.00 0.00 44 1007.5
20180812024338 75 197 7.0 18.0 0.00 0.00 0.00 42 1007.9
20180812022331 76 192 7.0 19.0 0.00 0.00 0.00 41 1007.6
20180812020338 78 214 9.0 22.0 0.00 0.00 0.00 39 1007.5
20180812014833 80 202 9.0 18.0 0.00 0.00 0.00 36 1007.5
20180812012837 81 254 11.0 23.0 0.00 0.00 0.00 35 1007.3
20180812010835 82 207 7.0 24.0 0.00 0.00 0.00 35 1006.9
20180812005325 82 250 10.0 23.0 0.00 0.00 0.00 35 1007.0
20180812003333 83 226 15.0 24.0 0.00 0.00 0.00 34 1006.8
20180812001337 83 250 16.0 24.0 0.00 0.00 0.00 33 1007.4
20180811235329 85 239 8.0 20.0 0.00 0.00 0.00 33 1008.0
20180811233337 86 226 11.0 20.0 0.00 0.00 0.00 31 1008.7
20180811231326 87 229 11.0 21.0 0.00 0.00 0.00 31 1008.7
20180811225333 87 232 13.0 21.0 0.00 0.00 0.00 32 1008.7
20180811223824 88 235 12.0 22.0 0.00 0.00 0.00 32 1009.1
20180811221829 88 266 11.0 25.0 0.00 0.00 0.00 32 1009.0
20180811215840 88 252 12.0 21.0 0.00 0.00 0.00 32 1009.3
20180811214328 87 256 12.0 22.0 0.00 0.00 0.00 33 1009.7
20180811212334 87 234 11.0 21.0 0.00 0.00 0.00 34 1009.8
20180811210340 86 249 12.0 22.0 0.00 0.00 0.00 35 1009.8
20180811204829 86 183 12.0 25.0 0.00 0.00 0.00 36 1009.8
20180811202843 85 245 13.0 23.0 0.00 0.00 0.00 37 1009.8
20180811200833 84 247 10.0 24.0 0.00 0.00 0.00 38 1009.8
20180811194837 83 206 12.0 21.0 0.00 0.00 0.00 38 1010.3
20180811192829 83 228 11.0 22.0 0.00 0.00 0.00 40 1010.7
20180811190837 81 254 9.0 22.0 0.00 0.00 0.00 43 1010.9
20180811185329 80 202 10.0 23.0 0.00 0.00 0.00 44 1011.1
20180811183340 79 252 9.0 21.0 0.00 0.00 0.00 45 1011.1
20180811181840 78 261 8.0 18.0 0.00 0.00 0.00 46 1011.1
20180811180330 76 204 9.0 18.0 0.00 0.00 0.00 48 1011.2
20180811174346 75 209 9.0 16.0 0.00 0.00 0.00 50 1011.7
20180811172825 74 195 4.0 15.0 0.00 0.00 0.00 53 1012.0
20180811170837 75 188 3.0 9.0 0.00 0.00 0.00 53 1011.5
20180811165328 74 143 2.0 10.0 0.00 0.00 0.00 55 1011.0
20180811163340 74 203 2.0 8.0 0.00 0.00 0.00 52 1011.1
20180811161326 74 211 4.0 12.0 0.00 0.00 0.00 52 1011.5
20180811155336 72 175 2.0 8.0 0.00 0.00 0.00 54 1011.5
20180811153825 71 306 4.0 18.0 0.00 0.00 0.00 56 1010.5
20180811151829 69 286 7.0 16.0 0.00 0.00 0.00 59 1010.3
20180811145830 70 114 3.0 11.0 0.00 0.00 0.00 59 1010.3
20180811144330 70 125 2.0 9.0 0.00 0.00 0.00 56 1010.1
20180811142334 70 67 4.0 12.0 0.00 0.00 0.00 55 1010.1
20180811140333 68 221 4.0 11.0 0.00 0.00 0.00 57 1009.6
20180811134337 67 85 5.0 14.0 0.00 0.00 0.00 59 1009.6
20180811132827 68 169 3.0 15.0 0.00 0.00 0.00 58 1009.4
20180811130837 68 231 7.0 18.0 0.00 0.00 0.00 58 1009.2
20180811124845 67 222 9.0 19.0 0.00 0.00 0.00 61 1009.5
20180811123329 66 228 6.0 14.0 0.00 0.00 0.00 61 1009.4
20180811121335 67 184 3.0 7.0 0.00 0.00 0.00 60 1009.4
20180811115350 67 67 3.0 7.0 0.00 0.00 0.00 62 1009.4
20180811113343 67 334 2.0 8.0 0.00 0.00 0.00 60 1009.3
20180811110333 68 230 4.0 11.0 0.00 0.00 0.00 59 1009.2
20180811104341 68 41 4.0 11.0 0.00 0.00 0.00 59 1009.2
20180811102831 69 238 3.0 11.0 0.00 0.00 0.00 57 1008.4
20180811100839 70 17 4.0 11.0 0.00 0.00 0.00 56 1008.6
20180811095334 70 287 5.0 14.0 0.00 0.00 0.00 57 1008.8
20180811093345 69 228 2.0 11.0 0.00 0.00 0.00 58 1009.0
20180811091826 69 68 3.0 6.0 0.00 0.00 0.00 60 1009.5
20180811085838 70 136 2.0 10.0 0.00 0.00 0.00 57 1010.0
20180811084327 70 90 3.0 9.0 0.00 0.00 0.00 58 1009.7
20180811082334 71 73 4.0 12.0 0.00 0.00 0.00 56 1009.7
20180811080341 71 269 3.0 11.0 0.00 0.00 0.00 55 1009.6
20180811074830 72 30 4.0 15.0 0.00 0.00 0.00 54 1009.9
20180811072838 73 98 5.0 9.0 0.00 0.00 0.00 50 1009.6
20180811071331 75 322 3.0 9.0 0.00 0.00 0.00 48 1009.7
20180811065340 78 274 4.0 17.0 0.00 0.00 0.00 42 1008.9
20180811063829 79 209 8.0 17.0 0.00 0.00 0.00 40 1008.8
20180811061837 75 265 5.0 11.0 0.00 0.00 0.00 47 1009.9
20180811055840 73 238 18.0 26.0 0.00 0.00 0.00 52 1010.0
20180811054333 73 235 20.0 26.0 0.00 0.00 0.00 51 1009.9
20180811052346 73 240 26.0 34.0 0.00 0.00 0.00 51 1009.2
20180811050833 74 242 30.0 36.0 0.00 0.00 0.00 50 1008.9
20180811044849 74 242 30.0 37.0 0.00 0.00 0.00 50 1009.1
20180811043329 75 241 33.0 37.0 0.00 0.00 0.00 49 1008.6
20180811041337 75 243 33.0 41.0 0.00 0.00 0.00 48 1008.4
20180811035346 77 244 34.0 42.0 0.00 0.00 0.00 46 1007.9
20180811033332 80 210 11.0 20.0 0.00 0.00 0.00 40 1007.8
20180811031343 80 264 11.0 21.0 0.00 0.00 0.00 40 1007.7
20180811025833 82 260 12.0 20.0 0.00 0.00 0.00 37 1007.7
20180811023841 83 259 10.0 21.0 0.00 0.00 0.00 36 1007.6
20180811021841 84 216 13.0 20.0 0.00 0.00 0.00 35 1007.5
20180811020329 84 209 12.0 23.0 0.00 0.00 0.00 35 1007.7
20180811014342 85 247 10.0 21.0 0.00 0.00 0.00 34 1007.4
20180811012344 85 266 12.0 27.0 0.00 0.00 0.00 34 1007.1
20180811010837 87 239 15.0 26.0 0.00 0.00 0.00 32 1008.0
20180811004841 88 254 16.0 27.0 0.00 0.00 0.00 31 1007.7
20180811003331 89 271 12.0 28.0 0.00 0.00 0.00 30 1007.7
20180811001345 90 214 12.0 24.0 0.00 0.00 0.00 29 1008.2
20180810235837 90 220 12.0 24.0 0.00 0.00 0.00 28 1008.1
20180810233845 90 230 11.0 25.0 0.00 0.00 0.00 28 1008.4
20180810232328 90 250 12.0 23.0 0.00 0.00 0.00 29 1008.8
20180810230340 91 258 11.0 24.0 0.00 0.00 0.00 28 1008.8
20180810224829 91 258 14.0 30.0 0.00 0.00 0.00 27 1008.5
20180810222845 91 280 13.0 23.0 0.00 0.00 0.00 25 1009.2
20180810221330 90 270 13.0 24.0 0.00 0.00 0.00 25 1009.7
20180810215342 91 237 13.0 22.0 0.00 0.00 0.00 26 1009.7
20180810213838 92 267 10.0 20.0 0.00 0.00 0.00 26 1009.9
20180810211846 91 266 9.0 18.0 0.00 0.00 0.00 30 1010.5
20180810205841 89 283 11.0 21.0 0.00 0.00 0.00 30 1010.6
20180810203844 87 236 13.0 21.0 0.00 0.00 0.00 33 1010.9
20180810201846 87 247 11.0 19.0 0.00 0.00 0.00 34 1011.2
20180810200343 87 245 7.0 17.0 0.00 0.00 0.00 33 1011.5
20180810194832 87 254 6.0 13.0 0.00 0.00 0.00 33 1011.4
20180810192850 84 262 7.0 17.0 0.00 0.00 0.00 35 1011.6
20180810190839 83 236 8.0 20.0 0.00 0.00 0.00 34 1011.2
20180810185330 81 280 11.0 19.0 0.00 0.00 0.00 36 1011.3
20180810183345 81 228 6.0 15.0 0.00 0.00 0.00 38 1011.5
20180810180841 78 158 6.0 14.0 0.00 0.00 0.00 45 1011.9
20180810175330 78 211 4.0 10.0 0.00 0.00 0.00 45 1011.6
20180810173343 78 170 4.0 8.0 0.00 0.00 0.00 46 1011.5
20180810171338 78 251 4.0 8.0 0.00 0.00 0.00 42 1011.5
20180810165346 79 287 6.0 12.0 0.00 0.00 0.00 39 1011.3
20180810163348 79 242 2.0 6.0 0.00 0.00 0.00 40 1011.3
20180810161844 77 91 3.0 5.0 0.00 0.00 0.00 45 1011.2
20180810155850 75 48 3.0 6.0 0.00 0.00 0.00 48 1011.5
20180810153858 74 157 1.0 3.0 0.00 0.00 0.00 51 1011.4
20180810152345 72 157 1.0 5.0 0.00 0.00 0.00 53 1011.3
20180810150357 69 185 2.0 5.0 0.00 0.00 0.00 56 1011.0
20180810143855 67 140 1.0 9.0 0.00 0.00 0.00 61 1010.7
20180810142342 66 114 3.0 6.0 0.00 0.00 0.00 63 1010.3
20180810140349 64 171 3.0 10.0 0.00 0.00 0.00 67 1010.2
20180810134359 66 129 2.0 6.0 0.00 0.00 0.00 64 1010.3
20180810132854 64 10 3.0 8.0 0.00 0.00 0.00 69 1010.0
20180810131340 62 52 3.0 6.0 0.00 0.00 0.00 76 1009.6
20180810125353 62 156 1.0 14.0 0.00 0.00 0.00 74 1009.7
20180810123402 67 221 4.0 11.0 0.00 0.00 0.00 64 1009.8
20180810121848 65 150 4.0 10.0 0.00 0.00 0.00 69 1009.1
20180810115853 63 145 4.0 8.0 0.00 0.00 0.00 73 1008.9
20180810113857 63 69 4.0 9.0 0.00 0.00 0.00 73 1008.7
20180810111849 61 49 2.0 7.0 0.00 0.00 0.00 79 1009.2
20180810105859 60 95 4.0 10.0 0.00 0.00 0.00 79 1008.5
20180810103346 60 108 2.0 13.0 0.00 0.00 0.00 77 1009.0
20180810101353 62 103 2.0 10.0 0.00 0.00 0.00 73 1008.5
20180810095848 63 114 3.0 8.0 0.00 0.00 0.00 69 1008.5
20180810093858 64 198 4.0 11.0 0.00 0.00 0.00 67 1008.7
20180810092002 64 43 3.0 6.0 0.00 0.00 0.00 68 1008.6
20180810090352 64 197 4.0 10.0 0.00 0.00 0.00 68 1008.7
20180810084845 64 143 4.0 11.0 0.00 0.00 0.00 68 1009.2
20180810082900 65 157 1.0 6.0 0.00 0.00 0.00 62 1009.2
20180810080906 67 140 2.0 8.0 0.00 0.00 0.00 60 1009.5
20180810075352 65 62 2.0 10.0 0.00 0.00 0.00 62 1009.6
20180810073357 66 145 6.0 14.0 0.00 0.00 0.00 62 1009.1
20180810071349 67 134 3.0 9.0 0.00 0.00 0.00 59 1008.8
20180810065358 69 183 2.0 6.0 0.00 0.00 0.00 56 1008.8
20180810063847 69 162 2.0 9.0 0.00 0.00 0.00 54 1008.9
20180810061851 70 131 2.0 7.0 0.00 0.00 0.00 53 1009.1
20180810055857 73 191 2.0 5.0 0.00 0.00 0.00 48 1009.1
20180810053901 74 207 1.0 4.0 0.00 0.00 0.00 46 1009.2
20180810052345 74 202 1.0 7.0 0.00 0.00 0.00 45 1009.2
20180810050356 76 238 1.0 7.0 0.00 0.00 0.00 44 1009.1
20180810044844 76 240 2.0 5.0 0.00 0.00 0.00 41 1008.8
20180810042851 77 91 2.0 8.0 0.00 0.00 0.00 41 1008.5
20180810040858 78 60 5.0 12.0 0.00 0.00 0.00 42 1008.1
20180810034901 80 228 4.0 12.0 0.00 0.00 0.00 38 1008.3
20180810032854 81 240 6.0 16.0 0.00 0.00 0.00 38 1007.8
20180810030857 84 231 7.0 13.0 0.00 0.00 0.00 31 1007.3
20180810024907 85 219 7.0 14.0 0.00 0.00 0.00 34 1007.6
20180810022844 85 204 6.0 17.0 0.00 0.00 0.00 37 1007.7
20180810020855 88 223 6.0 14.0 0.00 0.00 0.00 34 1007.6
20180810015346 89 203 5.0 13.0 0.00 0.00 0.00 33 1007.7
20180810013406 90 185 6.0 13.0 0.00 0.00 0.00 31 1008.0
20180810011847 92 226 4.0 12.0 0.00 0.00 0.00 30 1008.4
20180810005855 93 275 5.0 13.0 0.00 0.00 0.00 30 1008.6
20180810004350 93 251 7.0 14.0 0.00 0.00 0.00 29 1008.6
20180810002403 94 269 9.0 15.0 0.00 0.00 0.00 29 1008.8
20180810000359 94 281 7.0 14.0 0.00 0.00 0.00 28 1008.6
20180809234846 94 219 8.0 13.0 0.00 0.00 0.00 28 1008.6
20180809232859 94 211 9.0 18.0 0.00 0.00 0.00 29 1008.6
20180809231350 94 252 8.0 13.0 0.00 0.00 0.00 28 1008.9
20180809225405 94 234 6.0 12.0 0.00 0.00 0.00 28 1009.3
20180809223851 94 267 5.0 12.0 0.00 0.00 0.00 29 1009.5
20180809222345 93 279 6.0 13.0 0.00 0.00 0.00 29 1009.7
20180809220403 94 260 6.0 11.0 0.00 0.00 0.00 29 1010.1
20180809214846 94 264 6.0 12.0 0.00 0.00 0.00 31 1010.2
20180809212854 93 228 4.0 8.0 0.00 0.00 0.00 31 1010.1
20180809211345 94 245 5.0 11.0 0.00 0.00 0.00 31 1010.2
20180809205403 93 285 3.0 7.0 0.00 0.00 0.00 32 1010.6
20180809203846 92 294 2.0 6.0 0.00 0.00 0.00 33 1010.7
20180809201852 91 280 3.0 6.0 0.00 0.00 0.00 34 1010.7
20180809200345 91 312 3.0 7.0 0.00 0.00 0.00 34 1010.8
20180809194400 89 334 1.0 4.0 0.00 0.00 0.00 36 1010.8
20180809192350 87 298 2.0 5.0 0.00 0.00 0.00 37 1010.8
20180809190344 85 305 2.0 6.0 0.00 0.00 0.00 41 1011.1
20180809184353 86 263 3.0 5.0 0.00 0.00 0.00 41 1011.3
20180809182842 84 154 1.0 4.0 0.00 0.00 0.00 44 1011.3
20180809180858 82 154 1.0 5.0 0.00 0.00 0.00 47 1011.3
20180809175343 81 182 1.0 4.0 0.00 0.00 0.00 47 1011.1
20180809173354 78 182 2.0 3.0 0.00 0.00 0.00 50 1011.0
20180809171352 77 36 1.0 4.0 0.00 0.00 0.00 53 1011.2
20180809165400 74 59 0.0 4.0 0.00 0.00 0.00 54 1011.3
20180809163849 70 235 4.0 8.0 0.00 0.00 0.00 60 1011.2
20180809161859 68 252 7.0 9.0 0.00 0.00 0.00 64 1011.0
20180809160346 67 252 7.0 9.0 0.00 0.00 0.00 66 1010.9
20180809154349 68 212 4.0 6.0 0.00 0.00 0.00 63 1011.0
20180809152352 67 5 0.0 6.0 0.00 0.00 0.00 65 1010.9
20180809150359 62 221 3.0 17.0 0.00 0.00 0.00 76 1010.8
20180809144842 58 245 14.0 22.0 0.00 0.00 0.00 81 1010.6
20180809142853 60 235 11.0 14.0 0.00 0.00 0.00 77 1010.3
20180809140857 59 214 10.0 19.0 0.00 0.00 0.00 81 1010.1
20180809134853 59 235 9.0 14.0 0.00 0.00 0.00 77 1010.2
20180809132852 56 232 15.0 23.0 0.00 0.00 0.00 86 1009.9
20180809130351 56 244 18.0 29.0 0.00 0.00 0.00 85 1009.5
20180809124357 57 224 8.0 17.0 0.00 0.00 0.00 82 1009.5
20180809122848 60 200 0.0 0.0 0.00 0.00 0.00 79 1009.7
20180809120858 61 200 0.0 1.0 0.00 0.00 0.00 78 1009.4
20180809115349 60 200 1.0 3.0 0.00 0.00 0.00 79 1009.7
20180809113358 60 183 2.0 5.0 0.00 0.00 0.00 78 1009.5
20180809111844 60 155 1.0 4.0 0.00 0.00 0.00 78 1009.1
20180809105400 62 155 0.0 3.0 0.00 0.00 0.00 77 1008.8
20180809103842 62 155 7.0 7.0 0.00 0.00 0.00 76 1008.8
20180809101902 58 239 23.0 30.0 0.00 0.00 0.00 83 1008.7
20180809095855 59 246 25.0 31.0 0.00 0.00 0.00 80 1008.6
20180809093900 57 255 26.0 32.0 0.00 0.00 0.00 85 1008.4
20180809091852 61 238 2.0 9.0 0.00 0.00 0.00 78 1008.2
20180809085858 61 144 2.0 6.0 0.00 0.00 0.00 77 1008.6
20180809084346 62 181 2.0 11.0 0.00 0.00 0.00 77 1008.3
20180809082843 62 167 5.0 13.0 0.00 0.00 0.00 76 1008.7
20180809080850 63 171 4.0 13.0 0.00 0.00 0.00 74 1009.0
20180809074859 62 195 8.0 20.0 0.00 0.00 0.00 76 1009.0
20180809073345 63 200 5.0 11.0 0.00 0.00 0.00 74 1009.0
20180809071357 63 190 6.0 12.0 0.00 0.00 0.00 73 1009.2
20180809065405 63 161 3.0 8.0 0.00 0.00 0.00 72 1008.9
20180809063846 64 195 5.0 10.0 0.00 0.00 0.00 70 1008.8
20180809061849 64 106 2.0 7.0 0.00 0.00 0.00 70 1008.6
20180809055900 66 143 3.0 9.0 0.00 0.00 0.00 66 1008.9
20180809054347 67 66 1.0 9.0 0.00 0.00 0.00 63 1008.4
20180809052352 68 93 2.0 4.0 0.00 0.00 0.00 63 1008.8
20180809050346 69 152 2.0 11.0 0.00 0.00 0.00 61 1008.5
20180809044354 69 147 2.0 6.0 0.00 0.00 0.00 62 1008.1
20180809041901 73 4 3.0 15.0 0.00 0.00 0.00 54 1008.3
20180809040348 74 235 4.0 11.0 0.00 0.00 0.00 52 1008.0
20180809034355 76 243 7.0 13.0 0.00 0.00 0.00 49 1008.0
20180809032406 77 235 4.0 13.0 0.00 0.00 0.00 48 1007.9
20180809030852 78 350 3.0 12.0 0.00 0.00 0.00 48 1007.7
20180809024857 78 199 5.0 12.0 0.00 0.00 0.00 47 1007.9
20180809023350 79 222 5.0 14.0 0.00 0.00 0.00 47 1007.8
20180809021354 80 189 7.0 15.0 0.00 0.00 0.00 46 1007.5
20180809015846 80 200 9.0 17.0 0.00 0.00 0.00 46 1007.3
20180809013903 80 211 10.0 19.0 0.00 0.00 0.00 45 1007.7
20180809012344 82 233 8.0 17.0 0.00 0.00 0.00 43 1007.8
20180809010404 84 252 7.0 17.0 0.00 0.00 0.00 41 1008.0
20180809004852 86 350 6.0 12.0 0.00 0.00 0.00 39 1008.4
20180809002903 87 248 4.0 10.0 0.00 0.00 0.00 38 1008.6
20180809000901 88 209 7.0 14.0 0.00 0.00 0.00 37 1008.8
20180808235344 88 252 6.0 14.0 0.00 0.00 0.00 35 1009.0
20180808233355 88 197 6.0 15.0 0.00 0.00 0.00 34 1009.2
20180808231851 88 216 5.0 16.0 0.00 0.00 0.00 35 1009.5
20180808225904 87 211 4.0 12.0 0.00 0.00 0.00 35 1009.5
20180808224351 87 246 8.0 16.0 0.00 0.00 0.00 36 1009.7
20180808222355 86 247 8.0 15.0 0.00 0.00 0.00 36 1009.8
20180808220844 86 216 7.0 12.0 0.00 0.00 0.00 36 1009.8
20180808214903 86 280 5.0 13.0 0.00 0.00 0.00 38 1010.4
20180808213349 85 187 3.0 9.0 0.00 0.00 0.00 39 1010.4
20180808211352 83 194 6.0 14.0 0.00 0.00 0.00 42 1010.6
20180808205343 83 350 2.0 9.0 0.00 0.00 0.00 43 1010.5
20180808203353 83 264 2.0 8.0 0.00 0.00 0.00 43 1010.5
20180808201845 82 241 3.0 8.0 0.00 0.00 0.00 45 1010.5
20180808195856 80 183 3.0 9.0 0.00 0.00 0.00 48 1011.1
20180808194329 76 204 9.0 13.0 0.00 0.00 0.00 55 1011.1
20180808192338 75 223 8.0 13.0 0.00 0.00 0.00 52 1011.1
20180808190836 72 240 12.0 16.0 0.00 0.00 0.00 56 1010.8
20180808184842 71 252 8.0 14.0 0.00 0.00 0.00 58 1011.5
20180808182848 69 211 14.0 16.0 0.00 0.00 0.00 63 1011.1
20180808180846 67 228 10.0 14.0 0.00 0.00 0.00 66 1011.2
20180808175335 64 247 13.0 17.0 0.00 0.00 0.00 72 1010.9
20180808173347 62 246 14.0 19.0 0.00 0.00 0.00 78 1011.0
20180808171337 59 245 14.0 22.0 0.00 0.00 0.00 83 1011.2
20180808165347 57 260 18.0 25.0 0.00 0.00 0.00 87 1010.9
20180808163833 56 244 18.0 24.0 0.00 0.00 0.00 88 1010.7
20180808161832 55 240 18.0 24.0 0.00 0.00 0.00 91 1010.5
20180808155840 54 252 21.0 25.0 0.00 0.00 0.00 92 1010.5
20180808154328 54 244 20.0 24.0 0.00 0.00 0.00 93 1010.2
20180808152333 54 246 21.0 30.0 0.00 0.00 0.00 94 1010.0
20180808150345 53 240 22.0 28.0 0.00 0.00 0.00 94 1009.8
20180808144835 53 242 25.0 30.0 0.00 0.00 0.00 94 1009.4
20180808142836 52 247 25.0 32.0 0.00 0.00 0.00 94 1009.2
20180808140844 52 245 24.0 31.0 0.00 0.00 0.00 94 1009.1
20180808135331 52 239 23.0 34.0 0.00 0.00 0.00 94 1008.9
20180808133334 52 242 26.0 32.0 0.00 0.00 0.00 94 1008.6
20180808131339 52 245 27.0 36.0 0.00 0.00 0.00 94 1008.4
20180808125826 52 242 30.0 39.0 0.00 0.00 0.00 94 1008.1
20180808123837 52 227 27.0 36.0 0.00 0.00 0.00 94 1007.8
20180808121845 52 247 30.0 40.0 0.00 0.00 0.00 94 1007.8
20180808120333 52 249 28.0 35.0 0.00 0.00 0.00 94 1007.7
20180808114335 52 247 31.0 37.0 0.00 0.00 0.00 93 1007.0
20180808112347 53 240 29.0 35.0 0.00 0.00 0.00 92 1006.9
20180808110336 53 245 31.0 36.0 0.00 0.00 0.00 92 1006.6
20180808104341 54 243 30.0 35.0 0.00 0.00 0.00 91 1006.6
20180808102826 54 249 28.0 39.0 0.00 0.00 0.00 91 1006.4
20180808100840 55 252 28.0 36.0 0.00 0.00 0.00 90 1006.4
20180808095330 55 238 26.0 33.0 0.00 0.00 0.00 89 1006.7
20180808093342 55 240 27.0 36.0 0.00 0.00 0.00 88 1006.6
20180808091340 56 259 29.0 38.0 0.00 0.00 0.00 88 1006.5
20180808085825 56 240 31.0 39.0 0.00 0.00 0.00 87 1006.5
20180808083840 56 247 34.0 40.0 0.00 0.00 0.00 86 1006.2
20180808081840 57 244 31.0 39.0 0.00 0.00 0.00 84 1006.2
20180808075844 57 251 34.0 40.0 0.00 0.00 0.00 85 1006.2
20180808073832 58 245 36.0 40.0 0.00 0.00 0.00 82 1006.1
20180808071832 58 244 32.0 39.0 0.00 0.00 0.00 81 1006.2
20180808065855 59 237 34.0 41.0 0.00 0.00 0.00 80 1006.1
20180808064344 59 238 36.0 42.0 0.00 0.00 0.00 78 1005.8
20180808062835 59 237 36.0 43.0 0.00 0.00 0.00 77 1005.9
20180808060848 61 243 38.0 44.0 0.00 0.00 0.00 74 1005.8
20180808055333 61 248 41.0 46.0 0.00 0.00 0.00 73 1005.8
20180808053341 61 256 38.0 45.0 0.00 0.00 0.00 73 1005.6
20180808051345 61 245 36.0 46.0 0.00 0.00 0.00 73 1005.8
20180808045829 61 247 38.0 46.0 0.00 0.00 0.00 73 1005.9
20180808043833 64 307 7.0 11.0 0.00 0.00 0.00 64 1005.4
20180808042314 67 37 4.0 14.0 0.00 0.00 0.00 62 1005.9
20180808040807 68 166 5.0 13.0 0.00 0.00 0.00 61 1006.3
20180808035304 69 142 5.0 15.0 0.00 0.00 0.00 60 1006.5
20180808033318 70 157 4.0 13.0 0.00 0.00 0.00 58 1006.3
20180808031321 70 192 3.0 10.0 0.00 0.00 0.00 57 1006.4
20180808025817 70 165 4.0 10.0 0.00 0.00 0.00 57 1006.5
20180808023824 71 150 5.0 11.0 0.00 0.00 0.00 55 1006.2
20180808021806 73 140 1.0 7.0 0.00 0.00 0.00 52 1006.5
20180808015820 75 195 3.0 7.0 0.00 0.00 0.00 49 1006.1
20180808013815 76 102 5.0 12.0 0.00 0.00 0.00 48 1006.8
20180808012308 77 107 3.0 12.0 0.00 0.00 0.00 47 1006.9
20180808010324 78 65 3.0 9.0 0.00 0.00 0.00 46 1007.0
20180808004824 78 160 4.0 15.0 0.00 0.00 0.00 44 1006.9
20180808002809 78 194 7.0 21.0 0.00 0.00 0.00 44 1006.3
20180808000820 79 245 10.0 22.0 0.00 0.00 0.00 43 1005.4
20180807235308 79 244 10.0 26.0 0.00 0.00 0.00 43 1005.9
20180807233325 79 238 12.0 23.0 0.00 0.00 0.00 42 1006.1
20180807231810 80 271 10.0 23.0 0.00 0.00 0.00 41 1006.0
20180807225823 80 233 6.0 17.0 0.00 0.00 0.00 40 1006.0
20180807223819 80 188 5.0 18.0 0.00 0.00 0.00 41 1006.7
20180807222306 80 82 6.0 11.0 0.00 0.00 0.00 41 1006.9
20180807220323 80 194 4.0 21.0 0.00 0.00 0.00 40 1007.4
20180807214809 78 235 11.0 25.0 0.00 0.00 0.00 42 1007.5
20180807212817 77 253 13.0 20.0 0.00 0.00 0.00 44 1007.5
20180807211311 76 256 11.0 21.0 0.00 0.00 0.00 46 1008.0
20180807205323 75 242 14.0 24.0 0.00 0.00 0.00 48 1008.1
20180807203814 75 284 8.0 17.0 0.00 0.00 0.00 47 1008.1
20180807201820 75 282 7.0 21.0 0.00 0.00 0.00 47 1008.3
20180807195818 74 211 5.0 15.0 0.00 0.00 0.00 48 1008.5
20180807194304 72 256 10.0 22.0 0.00 0.00 0.00 49 1008.5
20180807192318 73 249 8.0 15.0 0.00 0.00 0.00 49 1008.8
20180807190805 72 242 8.0 18.0 0.00 0.00 0.00 49 1008.7
20180807184816 71 157 6.0 18.0 0.00 0.00 0.00 50 1008.7
20180807183311 71 254 6.0 19.0 0.00 0.00 0.00 52 1008.8
20180807181321 70 208 6.0 13.0 0.00 0.00 0.00 51 1008.7
20180807175812 69 350 2.0 12.0 0.00 0.00 0.00 56 1008.8
20180807174305 68 64 2.0 7.0 0.00 0.00 0.00 56 1009.1
20180807172317 69 29 4.0 8.0 0.00 0.00 0.00 54 1008.7
20180807170316 68 57 3.0 10.0 0.00 0.00 0.00 53 1008.9
20180807164802 67 258 2.0 12.0 0.00 0.00 0.00 58 1008.6
20180807162834 66 141 3.0 8.0 0.00 0.00 0.00 61 1008.8
20180807160836 66 287 3.0 10.0 0.00 0.00 0.00 59 1008.8
20180807155326 64 230 4.0 8.0 0.00 0.00 0.00 63 1008.8
20180807153331 62 143 2.0 5.0 0.00 0.00 0.00 70 1008.5
20180807150830 61 178 6.0 15.0 0.00 0.00 0.00 73 1008.8
20180807145325 60 124 4.0 11.0 0.00 0.00 0.00 74 1008.6
20180807143338 59 134 3.0 8.0 0.00 0.00 0.00 75 1008.6
20180807141325 59 132 4.0 12.0 0.00 0.00 0.00 75 1008.5
20180807135335 59 145 4.0 13.0 0.00 0.00 0.00 74 1008.1
20180807133827 59 174 5.0 15.0 0.00 0.00 0.00 74 1008.0
20180807131830 61 170 4.0 11.0 0.00 0.00 0.00 68 1008.0
20180807125838 63 154 2.0 12.0 0.00 0.00 0.00 60 1007.9
20180807124326 61 232 5.0 11.0 0.00 0.00 0.00 67 1008.1
20180807122331 59 173 5.0 10.0 0.00 0.00 0.00 75 1007.9
20180807120818 59 135 2.0 9.0 0.00 0.00 0.00 74 1008.0
20180807114921 60 121 2.0 9.0 0.00 0.00 0.00 73 1007.6
20180807112843 62 100 2.0 8.0 0.00 0.00 0.00 66 1007.9
20180807110828 60 150 6.0 15.0 0.00 0.00 0.00 73 1007.8
20180807104839 61 103 3.0 6.0 0.00 0.00 0.00 69 1007.4
20180807103338 62 43 3.0 9.0 0.00 0.00 0.00 67 1007.2
20180807100828 63 44 2.0 8.0 0.00 0.00 0.00 64 1007.2
20180807094830 63 44 3.0 7.0 0.00 0.00 0.00 63 1007.0
20180807092841 64 76 3.0 8.0 0.00 0.00 0.00 58 1007.4
20180807091321 63 117 2.0 6.0 0.00 0.00 0.00 61 1007.4
20180807085340 64 148 2.0 7.0 0.00 0.00 0.00 61 1007.8
20180807083339 65 85 3.0 8.0 0.00 0.00 0.00 58 1007.8
20180807081824 65 133 1.0 9.0 0.00 0.00 0.00 58 1008.3
20180807075840 66 147 6.0 12.0 0.00 0.00 0.00 56 1007.9
20180807073834 67 345 2.0 8.0 0.00 0.00 0.00 51 1007.7
20180807071835 67 114 3.0 8.0 0.00 0.00 0.00 49 1007.8
20180807065856 67 66 3.0 6.0 0.00 0.00 0.00 50 1008.1
20180807064335 69 50 2.0 7.0 0.00 0.00 0.00 49 1008.2
20180807062340 72 351 2.0 6.0 0.00 0.00 0.00 42 1008.5
20180807060830 72 62 3.0 9.0 0.00 0.00 0.00 43 1008.2
20180807054835 73 256 4.0 13.0 0.00 0.00 0.00 39 1008.5
20180807052837 74 240 8.0 18.0 0.00 0.00 0.00 38 1008.7
20180807050834 74 205 4.0 13.0 0.00 0.00 0.00 39 1009.0
20180807044837 74 272 8.0 16.0 0.00 0.00 0.00 40 1009.1
20180807042847 73 249 10.0 18.0 0.00 0.00 0.00 40 1009.5
20180807041336 73 273 9.0 22.0 0.00 0.00 0.00 40 1009.1
20180807035430 75 248 10.0 20.0 0.00 0.00 0.00 38 1008.8